TimeMST,TemperatureF,Dew PointF,Humidity,Sea Level PressureIn,VisibilityMPH,Wind Direction,Wind SpeedMPH,Gust SpeedMPH,PrecipitationIn,Events,Conditions,WindDirDegrees,DateUTC
12:15 AM,50.0,19.4,30,30.25,10.0,WNW,4.6,-,N/A,,Clear,300,2013-02-16 07:15:00
12:35 AM,48.2,24.8,40,30.25,10.0,Calm,Calm,-,N/A,,Clear,0,2013-02-16 07:35:00
12:55 AM,48.2,23.0,37,30.26,10.0,SSW,4.6,-,N/A,,Clear,210,2013-02-16 07:55:00
1:15 AM,46.4,23.0,40,30.26,10.0,SW,3.5,-,N/A,,Clear,230,2013-02-16 08:15:00
1:35 AM,46.4,21.2,37,30.26,10.0,NW,4.6,-,N/A,,Clear,320,2013-02-16 08:35:00
2:15 AM,46.4,19.4,34,30.26,10.0,North,6.9,-,N/A,,Clear,350,2013-02-16 09:15:00
2:35 AM,46.4,19.4,34,30.26,10.0,Calm,Calm,-,N/A,,Clear,0,2013-02-16 09:35:00
2:55 AM,42.8,23.0,46,30.26,10.0,WNW,4.6,-,N/A,,Clear,290,2013-02-16 09:55:00
3:15 AM,44.6,19.4,37,30.25,10.0,WNW,4.6,-,N/A,,Clear,290,2013-02-16 10:15:00
3:35 AM,41.0,19.4,42,30.25,10.0,NW,4.6,-,N/A,,Clear,310,2013-02-16 10:35:00
3:55 AM,41.0,19.4,42,30.24,10.0,NW,5.8,-,N/A,,Clear,310,2013-02-16 10:55:00
4:15 AM,44.6,19.4,37,30.24,10.0,NNW,5.8,-,N/A,,Clear,330,2013-02-16 11:15:00
4:35 AM,41.0,21.2,45,30.24,10.0,NW,6.9,-,N/A,,Clear,320,2013-02-16 11:35:00
4:55 AM,42.8,19.4,39,30.24,10.0,NW,3.5,-,N/A,,Clear,320,2013-02-16 11:55:00
5:15 AM,41.0,21.2,45,30.23,10.0,Calm,Calm,-,N/A,,Clear,0,2013-02-16 12:15:00
5:35 AM,50.0,15.8,26,30.23,10.0,East,6.9,-,N/A,,Clear,100,2013-02-16 12:35:00
5:55 AM,50.0,17.6,28,30.23,10.0,NE,4.6,-,N/A,,Clear,40,2013-02-16 12:55:00
6:15 AM,46.4,19.4,34,30.22,10.0,East,10.4,-,N/A,,Clear,80,2013-02-16 13:15:00
6:55 AM,44.6,19.4,37,30.23,10.0,East,4.6,-,N/A,,Clear,80,2013-02-16 13:55:00
7:15 AM,44.6,19.4,37,30.23,10.0,East,4.6,-,N/A,,Clear,80,2013-02-16 14:15:00
7:35 AM,46.4,19.4,34,30.24,10.0,NE,5.8,-,N/A,,Clear,40,2013-02-16 14:35:00
7:55 AM,48.2,19.4,32,30.24,10.0,East,5.8,-,N/A,,Clear,80,2013-02-16 14:55:00
8:15 AM,50.0,21.2,32,30.25,10.0,ENE,3.5,-,N/A,,Clear,60,2013-02-16 15:15:00
11:15 AM,68.0,12.2,12,30.21,10.0,ENE,13.8,-,N/A,,Clear,70,2013-02-16 18:15:00
11:35 AM,68.0,10.4,11,30.21,10.0,ENE,10.4,17.3,N/A,,Clear,60,2013-02-16 18:35:00
11:55 AM,69.8,8.6,9,30.19,10.0,ENE,13.8,19.6,N/A,,Clear,60,2013-02-16 18:55:00
12:15 PM,71.6,8.6,9,30.17,10.0,ENE,16.1,-,N/A,,Clear,70,2013-02-16 19:15:00
12:35 PM,71.6,10.4,9,30.15,10.0,ENE,13.8,18.4,N/A,,Clear,60,2013-02-16 19:35:00
12:55 PM,73.4,14.0,10,30.13,10.0,ENE,12.7,18.4,N/A,,Clear,70,2013-02-16 19:55:00
1:15 PM,73.4,14.0,10,30.13,10.0,East,10.4,-,N/A,,Clear,100,2013-02-16 20:15:00
1:35 PM,75.2,12.2,9,30.11,10.0,East,15.0,19.6,N/A,,Clear,80,2013-02-16 20:35:00
1:55 PM,75.2,15.8,11,30.09,10.0,East,13.8,-,N/A,,Clear,100,2013-02-16 20:55:00
2:15 PM,75.2,15.8,11,30.08,10.0,East,13.8,-,N/A,,Clear,100,2013-02-16 21:15:00
2:35 PM,75.2,19.4,12,30.07,10.0,East,12.7,-,N/A,,Clear,100,2013-02-16 21:35:00
2:55 PM,75.2,19.4,12,30.06,10.0,ESE,11.5,-,N/A,,Clear,110,2013-02-16 21:55:00
3:15 PM,75.2,19.4,12,30.05,10.0,East,10.4,-,N/A,,Clear,100,2013-02-16 22:15:00
3:35 PM,75.2,17.6,11,30.04,10.0,ESE,11.5,-,N/A,,Clear,110,2013-02-16 22:35:00
3:55 PM,75.2,17.6,11,30.03,10.0,ESE,9.2,-,N/A,,Clear,110,2013-02-16 22:55:00
4:15 PM,75.2,21.2,13,30.02,10.0,East,5.8,-,N/A,,Clear,100,2013-02-16 23:15:00
4:35 PM,73.4,21.2,14,30.02,10.0,ESE,6.9,-,N/A,,Clear,110,2013-02-16 23:35:00
4:55 PM,75.2,19.4,12,30.01,10.0,ESE,6.9,-,N/A,,Clear,110,2013-02-16 23:55:00
5:15 PM,73.4,23.0,15,30.00,10.0,East,4.6,-,N/A,,Clear,100,2013-02-17 00:15:00
5:35 PM,71.6,24.8,17,30.00,10.0,SE,4.6,-,N/A,,Clear,130,2013-02-17 00:35:00
5:55 PM,69.8,23.0,17,30.00,10.0,SE,3.5,-,N/A,,Clear,130,2013-02-17 00:55:00
6:15 PM,66.2,26.6,23,30.00,9.0,Calm,Calm,-,N/A,,Clear,0,2013-02-17 01:15:00
6:35 PM,66.2,24.8,21,30.00,10.0,Calm,Calm,-,N/A,,Clear,0,2013-02-17 01:35:00
6:55 PM,62.6,24.8,24,29.99,10.0,Calm,Calm,-,N/A,,Clear,0,2013-02-17 01:55:00
7:15 PM,59.0,24.8,27,29.99,8.0,NNW,5.8,-,N/A,,Clear,340,2013-02-17 02:15:00
7:55 PM,57.2,23.0,27,29.99,10.0,North,8.1,-,N/A,,Scattered Clouds,350,2013-02-17 02:55:00
8:15 PM,55.4,24.8,31,29.98,10.0,North,10.4,-,N/A,,Mostly Cloudy,360,2013-02-17 03:15:00
8:35 PM,55.4,24.8,31,29.98,10.0,North,8.1,-,N/A,,Overcast,350,2013-02-17 03:35:00
8:55 PM,55.4,24.8,31,29.98,10.0,NNW,9.2,-,N/A,,Mostly Cloudy,340,2013-02-17 03:55:00
9:15 PM,57.2,23.0,27,29.98,10.0,North,12.7,-,N/A,,Mostly Cloudy,350,2013-02-17 04:15:00
9:35 PM,55.4,21.2,26,29.98,10.0,North,10.4,-,N/A,,Scattered Clouds,350,2013-02-17 04:35:00
9:55 PM,57.2,19.4,23,29.98,10.0,North,10.4,-,N/A,,Scattered Clouds,350,2013-02-17 04:55:00
10:15 PM,55.4,21.2,26,29.98,10.0,North,9.2,-,N/A,,Mostly Cloudy,350,2013-02-17 05:15:00
10:35 PM,55.4,23.0,29,29.98,10.0,NNW,8.1,-,N/A,,Scattered Clouds,330,2013-02-17 05:35:00
10:55 PM,55.4,23.0,29,29.98,10.0,East,4.6,-,N/A,,Mostly Cloudy,80,2013-02-17 05:55:00
11:15 PM,53.6,23.0,30,29.98,10.0,Calm,Calm,-,N/A,,Scattered Clouds,0,2013-02-17 06:15:00
11:35 PM,48.2,24.8,40,29.97,10.0,WNW,3.5,-,N/A,,Partly Cloudy,290,2013-02-17 06:35:00
11:55 PM,46.4,26.6,46,29.97,8.0,Calm,Calm,-,N/A,,Clear,0,2013-02-17 06:55:00